Regional Weather Roundup
Issued by NWS Newport/Morehead, NC

Current Version | Previous Version | Text Only | Print | Product List | Glossary On
Versions: 1 2 3 4 5 6 7 8 9 10 11 12 13 14 15 16 17 18 19 20 21 22 23 24 25 26 27 28 29 30 31 32 33 34 35 36 37 38 39 40 41 42 43 44 45 46 47 48 49 50
000
ASUS42 KMHX 290913
RWRMHX
WEATHER ROUNDUP FOR EASTERN NORTH CAROLINA
NATIONAL WEATHER SERVICE NEWPORT/MOREHEAD CITY NC
500 AM EDT FRI APR 29 2016

NOTE: "FAIR" INDICATES FEW OR NO CLOUDS BELOW 12,000 FEET
WITH NO SIGNIFICANT WEATHER AND/OR OBSTRUCTIONS TO VISIBILITY

NCZ015>017-031-032-045>047-102-103-291000-
NORTH COAST

CITY           SKY/WX    TMP DP  RH WIND       PRES   REMARKS
EDENTON        DRIZZLE   59  59 100 N10       29.94R
ELIZABETH CITY CLOUDY    57  56  96 N14       29.93R
KITTY HAWK     SUNNY     57  57 100 CALM      29.87F FOG
MANTEO         NOT AVBL

$$

NCZ045>047-081-094-103-104-291000-
CENTRAL COAST

CITY           SKY/WX    TMP DP  RH WIND       PRES   REMARKS
FRISCO         CLOUDY    63  62  97 NE9       29.87S
SWANQUARTER    NOT AVBL

$$

NCZ095-097-098-100-101-291000-
SOUTHERN COAST

CITY           SKY/WX    TMP DP  RH WIND       PRES   REMARKS
BEAUFORT       CLOUDY    69  67  93 CALM      29.86F
CEDAR ISLAND   NOT AVBL
JACKSONVILLE   CLEAR     65  62  90 W3        29.87F
PINEY ISLAND   NOT AVBL
WILMINGTON     PTCLDY    69  66  90 SW8       29.88F


$$

NCZ011>013-027>030-043-044-078>080-089-090>093-098-291000-
COASTAL PLAIN

CITY           SKY/WX    TMP DP  RH WIND       PRES   REMARKS
AHOSKIE        CLOUDY    57  56  96 NE5       29.92F
CLINTON        PTCLDY    64  64 100 CALM      29.91R FOG
ELIZABETHTOWN  MOCLDY    66  65  97 CALM      29.89R
GOLDSBORO      CLOUDY    66  66 100 N7        29.88S FOG
GREENVILLE     CLOUDY    59  59 100 NE12      29.93S FOG
HAVELOCK       CLOUDY    68  66  93 CALM      29.87F
KENANSVILLE    PTCLDY    65  64  98 CALM      29.90R FOG
KINSTON        CLOUDY    66  65  99 N8        29.90R
NEW BERN       PTCLDY    65  63  93 N5        29.88F
RICHLANDS      CLEAR     64  63  96 CALM      29.88F
ROCKY MOUNT    CLOUDY    59  59 100 N7        29.92S
WASHINGTON     FOG       60  60  98 N7G17     29.90R VSB 3/4
WHITEVILLE     CLOUDY    67  66  94 CALM      29.88S

$$

AMZ130-135-150-152-154-156-158-170-250-252-270-ANZ085-086-088-633-658-670-291000-
MARINE OBSERVATIONS

STATION/POSITION TIME  TEMP    WIND        PRES    WAVE   SWELL
                       AIR SEA DIR/SP/G            HT/PER HT/PER
                 (UTC) (F)     (DEG/KT/KT) (MB)    (FT/S) (FT/S)
CHESAPEAKE LIGHT 0800   53      30/ 18/ 19 1013.4
64 E VA BEACH    0850   55 54   20/  8/ 10 1010.9    4/ 6   3/ 6
DUCK             0800   58 67  110/  3/  4 1011.5
2 E DUCK         0811      58                N/A     3/ 5
OREGON INLET     0800   58 68   10/  9/ 11 1011.9
13E OREGON INLT  0900      59                N/A     4/ 6   3/ 6
HATTERAS CG      0800   65 70   10/ 16/ 19 1011.5
DIAMOND BUOY     0850   66 71   10/ 10/ 14 1011.3    3/ 6   2/ 6
CAPE LOOKOUT     0800   69     220/  6/  8 1011.2
BEAUFORT LAB     0800   69 67  250/  3/  5 1010.9
30 SE NEW RVR IN 0825      67                N/A     4/ 6
27 SE WRIGHTSVLE 0808   71 69  240/ 10/ 14 1014.6
5 SE WRIGHTSVLE  0808   69 67  310/ 10/ 19 1012.3
225 S CAPE HAT   0850   71 71  200/ 10/ 12 1014.8    2/10   2/10
41 SE CHARLESTON 0850   73 72  230/ 12/ 14 1012.8    3/ 4   2/ 8

$$




USA.gov is the U.S. government's official web portal to all federal, state and local government web resources and services.